Change the Weather History Date:

Saturday, October 6, 2012

  Actual Average Record
Temperature  
Mean Temperature 52 °F 66 °F  
Max Temperature 58 °F 79 °F 97 °F (1956)
Min Temperature 46 °F 53 °F 35 °F (1964)
Degree Days  
Heating Degree Days 13 2  
Month to date heating degree days 13 12  
Since 1 July heating degree days 14 21  
Cooling Degree Days 0 3  
Month to date cooling degree days 20 22  
Year to date cooling degree days 2106 1887  
Growing Degree Days 2 (Base 50)    
Moisture  
Dew Point 41 °F    
Average Humidity 69    
Maximum Humidity 83    
Minimum Humidity 54    
Precipitation  
Precipitation T in 0.15 in 1.67 in (1955)
Month to date precipitation 0.02 0.95  
Year to date precipitation 22.38 36.15  
Snow  
Snow 0.00 in - - ()
Month to date snowfall 0.0  
Since 1 July snowfall 0.0  
Since 1 September snowfall 0.0  
Snow Depth 0.00 in    
Sea Level Pressure  
Sea Level Pressure 30.17 in    
Wind  
Wind Speed 8 mph (NE)    
Max Wind Speed 14 mph    
Max Gust Speed 20 mph    
Visibility 10 miles    
Events Rain    
T = Trace of Precipitation, MM = Missing Value Source: NWS Daily Summary

Daily Weather History Graph

Daily Weather History Graph

Search for Another Location

Airport or City:

Trip Planner

Search our weather history database for the weather conditions in past years. The results will help you decide how hot, cold, wet, or windy it might be!

Date:

Astronomy

Oct. 06, 2012 Rise Set
Actual Time 7:16 AM CDT 6:54 PM CDT
Civil Twilight 6:51 AM CDT 7:19 PM CDT
Nautical Twilight 6:22 AM CDT 7:48 PM CDT
Astronomical Twilight 5:53 AM CDT 8:17 PM CDT
Moon 11:22 PM CDT (10/6) 12:59 PM CDT (10/6)
Length of Visible Light 12h 28m
Length of Day
11h 38m
Waning Gibbous, 65% of the Moon is Illuminated
Oct 6
Waning Gibbous
Oct 8
Last Quarter
Oct 15
New
Oct 21
First Quarter
Oct 29
Full

Hourly Weather History & Observations

Time (CDT) Temp. Dew Point Humidity Pressure Visibility Wind Dir Wind Speed Gust Speed Precip Events Conditions
12:53 AM 57.9 °F 52.0 °F 81% 30.10 in 10.0 mi NE 6.9 mph - N/A   Overcast
1:46 AM 57.0 °F 51.1 °F 81% 30.12 in 10.0 mi NNE 6.9 mph - N/A   Overcast
1:53 AM 57.0 °F 51.1 °F 81% 30.11 in 10.0 mi ENE 9.2 mph - N/A   Overcast
2:44 AM 55.9 °F 50.0 °F 80% 30.13 in 10.0 mi NE 10.4 mph - 0.00 in   Overcast
2:53 AM 55.9 °F 50.0 °F 80% 30.12 in 10.0 mi NE 8.1 mph - 0.00 in   Overcast
3:53 AM 54.0 °F 48.9 °F 83% 30.12 in 10.0 mi East 8.1 mph - N/A   Overcast
4:53 AM 53.1 °F 45.0 °F 74% 30.14 in 10.0 mi ENE 9.2 mph - N/A   Overcast
5:53 AM 53.1 °F 41.0 °F 64% 30.15 in 10.0 mi ENE 10.4 mph - N/A   Overcast
6:53 AM 52.0 °F 36.0 °F 54% 30.16 in 10.0 mi ENE 11.5 mph - N/A   Overcast
7:53 AM 51.1 °F 37.0 °F 59% 30.18 in 10.0 mi ENE 5.8 mph - N/A   Overcast
8:53 AM 51.1 °F 37.0 °F 59% 30.18 in 10.0 mi East 6.9 mph - 0.00 in   Overcast
9:53 AM 51.1 °F 37.0 °F 59% 30.20 in 10.0 mi ENE 10.4 mph - N/A   Overcast
10:53 AM 51.1 °F 37.0 °F 59% 30.19 in 10.0 mi ENE 10.4 mph - N/A   Overcast
11:53 AM 52.0 °F 37.9 °F 59% 30.20 in 10.0 mi NE 10.4 mph - N/A   Overcast
12:53 PM 52.0 °F 39.0 °F 61% 30.19 in 10.0 mi ENE 9.2 mph - N/A   Overcast
1:53 PM 52.0 °F 37.9 °F 59% 30.19 in 10.0 mi NE 9.2 mph - N/A   Overcast
2:53 PM 53.1 °F 37.9 °F 57% 30.16 in 10.0 mi ENE 11.5 mph - N/A   Overcast
3:53 PM 51.1 °F 39.9 °F 66% 30.17 in 10.0 mi NE 9.2 mph 19.6 mph N/A   Overcast
4:53 PM 48.9 °F 37.9 °F 66% 30.17 in 10.0 mi ENE 8.1 mph - N/A   Overcast
5:53 PM 48.0 °F 37.0 °F 66% 30.18 in 10.0 mi NE 4.6 mph - N/A   Overcast
6:53 PM 46.9 °F 39.0 °F 74% 30.19 in 9.0 mi NE 4.6 mph - 0.00 in Rain Light Rain
7:53 PM 46.9 °F 39.0 °F 74% 30.21 in 10.0 mi North 5.8 mph - 0.00 in   Overcast
8:53 PM 46.9 °F 39.0 °F 74% 30.22 in 10.0 mi Variable 5.8 mph - N/A   Overcast
9:53 PM 48.0 °F 39.0 °F 71% 30.25 in 10.0 mi NNE 6.9 mph - N/A   Overcast
10:53 PM 46.9 °F 39.0 °F 74% 30.26 in 10.0 mi NE 4.6 mph - N/A   Overcast
11:53 PM 46.0 °F 41.0 °F 83% 30.25 in 10.0 mi Calm Calm - 0.00 in   Overcast